Time,TemperatureF,DewpointF,PressureIn,WindDirection,WindDirectionDegrees,WindSpeedMPH,WindSpeedGustMPH,Humidity,HourlyPrecipIn,Conditions,Clouds,dailyrainin,SolarRadiationWatts/m^2,SoftwareType,DateUTC
2013-03-04 00:04:00,32.6,27.0,30.32,East,85,0.0,-999.0,80,-99.99,,,0.00,0,weatherlink.com 1.10,2013-03-03 23:04:00,
2013-03-04 00:19:00,32.5,27.0,30.32,East,93,0.0,-999.0,80,-99.99,,,0.00,0,weatherlink.com 1.10,2013-03-03 23:19:00,
2013-03-04 00:34:00,32.4,27.0,30.33,East,83,0.0,-999.0,80,-99.99,,,0.00,0,weatherlink.com 1.10,2013-03-03 23:34:00,
2013-03-04 00:49:00,32.4,27.0,30.33,East,101,0.0,-999.0,81,-99.99,,,0.00,0,weatherlink.com 1.10,2013-03-03 23:49:00,
2013-03-04 01:04:00,32.5,27.0,30.33,ESE,104,0.0,-999.0,81,-99.99,,,0.00,0,weatherlink.com 1.10,2013-03-04 00:04:00,
2013-03-04 01:19:00,32.6,27.0,30.32,ESE,104,0.0,-999.0,81,-99.99,,,0.00,0,weatherlink.com 1.10,2013-03-04 00:19:00,
2013-03-04 01:34:00,32.6,27.0,30.33,ESE,103,0.0,-999.0,80,-99.99,,,0.00,0,weatherlink.com 1.10,2013-03-04 00:34:00,
2013-03-04 01:49:00,32.6,27.0,30.32,ESE,103,0.0,-999.0,80,-99.99,,,0.00,0,weatherlink.com 1.10,2013-03-04 00:49:00,
2013-03-04 02:05:00,32.5,27.0,30.33,ESE,103,0.0,-999.0,80,-99.99,,,0.00,0,weatherlink.com 1.10,2013-03-04 01:05:00,
2013-03-04 02:19:00,32.3,27.0,30.33,ESE,103,0.0,-999.0,80,-99.99,,,0.00,0,weatherlink.com 1.10,2013-03-04 01:19:00,
2013-03-04 02:35:00,31.9,26.0,30.32,ESE,103,0.0,-999.0,79,-99.99,,,0.00,0,weatherlink.com 1.10,2013-03-04 01:35:00,
2013-03-04 02:49:00,31.3,26.0,30.32,ESE,103,0.0,-999.0,79,-99.99,,,0.00,0,weatherlink.com 1.10,2013-03-04 01:49:00,
2013-03-04 03:04:00,30.8,25.0,30.32,ESE,103,0.0,-999.0,79,-99.99,,,0.00,0,weatherlink.com 1.10,2013-03-04 02:04:00,
2013-03-04 03:19:00,30.4,25.0,30.33,ESE,103,0.0,-999.0,80,-99.99,,,0.00,0,weatherlink.com 1.10,2013-03-04 02:19:00,
2013-03-04 03:34:00,30.1,25.0,30.33,ESE,103,0.0,-999.0,81,-99.99,,,0.00,0,weatherlink.com 1.10,2013-03-04 02:34:00,
2013-03-04 03:49:00,30.2,25.0,30.33,ESE,103,0.0,-999.0,82,-99.99,,,0.00,0,weatherlink.com 1.10,2013-03-04 02:49:00,
2013-03-04 04:04:00,30.3,26.0,30.33,ESE,103,0.0,-999.0,83,-99.99,,,0.00,0,weatherlink.com 1.10,2013-03-04 03:04:00,
2013-03-04 04:19:00,30.5,26.0,30.33,ESE,103,0.0,-999.0,83,-99.99,,,0.00,0,weatherlink.com 1.10,2013-03-04 03:19:00,
2013-03-04 04:34:00,30.6,26.0,30.33,ESE,103,0.0,-999.0,83,-99.99,,,0.00,0,weatherlink.com 1.10,2013-03-04 03:34:00,
2013-03-04 04:50:00,30.7,26.0,30.33,ESE,103,0.0,-999.0,83,-99.99,,,0.00,0,weatherlink.com 1.10,2013-03-04 03:50:00,
2013-03-04 05:04:00,30.8,27.0,30.34,ESE,103,0.0,-999.0,84,-99.99,,,0.00,0,weatherlink.com 1.10,2013-03-04 04:04:00,
2013-03-04 05:19:00,30.8,27.0,30.34,ESE,103,0.0,-999.0,84,-99.99,,,0.00,0,weatherlink.com 1.10,2013-03-04 04:19:00,
2013-03-04 05:34:00,30.9,27.0,30.33,ESE,103,0.0,-999.0,84,-99.99,,,0.00,0,weatherlink.com 1.10,2013-03-04 04:34:00,
2013-03-04 05:49:00,30.9,27.0,30.34,ESE,103,0.0,-999.0,84,-99.99,,,0.00,0,weatherlink.com 1.10,2013-03-04 04:49:00,
2013-03-04 06:04:00,30.9,27.0,30.34,ESE,103,0.0,-999.0,84,-99.99,,,0.00,0,weatherlink.com 1.10,2013-03-04 05:04:00,
2013-03-04 06:19:00,30.9,27.0,30.34,ESE,103,0.0,-999.0,84,-99.99,,,0.00,0,weatherlink.com 1.10,2013-03-04 05:19:00,
2013-03-04 06:35:00,30.7,26.0,30.34,ESE,103,0.0,-999.0,84,-99.99,,,0.00,0,weatherlink.com 1.10,2013-03-04 05:35:00,
2013-03-04 06:50:00,30.4,26.0,30.35,ESE,103,0.0,-999.0,83,-99.99,,,0.00,9,weatherlink.com 1.10,2013-03-04 05:50:00,
2013-03-04 07:04:00,30.0,25.0,30.35,ESE,103,0.0,-999.0,83,-99.99,,,0.00,16,weatherlink.com 1.10,2013-03-04 06:04:00,
2013-03-04 07:19:00,29.7,25.0,30.35,ESE,103,0.0,-999.0,83,-99.99,,,0.00,21,weatherlink.com 1.10,2013-03-04 06:19:00,
2013-03-04 07:34:00,29.4,25.0,30.36,ESE,103,0.0,-999.0,83,-99.99,,,0.00,28,weatherlink.com 1.10,2013-03-04 06:34:00,
2013-03-04 07:49:00,29.3,25.0,30.36,ESE,103,0.0,-999.0,84,-99.99,,,0.00,33,weatherlink.com 1.10,2013-03-04 06:49:00,
2013-03-04 08:04:00,29.2,25.0,30.36,ESE,103,0.0,-999.0,84,-99.99,,,0.00,40,weatherlink.com 1.10,2013-03-04 07:04:00,
2013-03-04 08:20:00,29.3,25.0,30.36,ESE,103,0.0,-999.0,85,-99.99,,,0.00,46,weatherlink.com 1.10,2013-03-04 07:20:00,
2013-03-04 08:34:00,29.7,26.0,30.36,ESE,103,0.0,-999.0,86,-99.99,,,0.00,47,weatherlink.com 1.10,2013-03-04 07:34:00,
2013-03-04 08:49:00,32.3,29.0,30.37,ESE,103,0.0,-999.0,88,-99.99,,,0.00,54,weatherlink.com 1.10,2013-03-04 07:49:00,
2013-03-04 09:04:00,34.4,30.0,30.37,NW,319,0.0,-999.0,83,-99.99,,,0.00,58,weatherlink.com 1.10,2013-03-04 08:04:00,
2013-03-04 09:19:00,35.5,29.0,30.37,NW,319,0.0,-999.0,78,-99.99,,,0.00,63,weatherlink.com 1.10,2013-03-04 08:19:00,
2013-03-04 09:34:00,36.2,29.0,30.37,WNW,300,0.0,-999.0,75,-99.99,,,0.00,67,weatherlink.com 1.10,2013-03-04 08:34:00,
2013-03-04 09:49:00,37.3,29.0,30.37,WNW,285,0.0,-999.0,73,-99.99,,,0.00,394,weatherlink.com 1.10,2013-03-04 08:49:00,
2013-03-04 10:04:00,38.4,29.0,30.37,WSW,256,0.0,-999.0,70,-99.99,,,0.00,406,weatherlink.com 1.10,2013-03-04 09:04:00,
2013-03-04 10:20:00,39.5,30.0,30.37,WSW,247,1.0,-999.0,68,-99.99,,,0.00,452,weatherlink.com 1.10,2013-03-04 09:20:00,
2013-03-04 10:34:00,40.4,30.0,30.37,NNW,348,1.0,-999.0,67,-99.99,,,0.00,475,weatherlink.com 1.10,2013-03-04 09:34:00,
2013-03-04 10:49:00,40.7,30.0,30.37,WSW,257,2.0,-999.0,65,-99.99,,,0.00,494,weatherlink.com 1.10,2013-03-04 09:49:00,
2013-03-04 11:04:00,40.9,30.0,30.37,WNW,292,0.0,-999.0,65,-99.99,,,0.00,504,weatherlink.com 1.10,2013-03-04 10:04:00,
2013-03-04 11:19:00,42.2,30.0,30.36,West,279,0.0,-999.0,62,-99.99,,,0.00,515,weatherlink.com 1.10,2013-03-04 10:19:00,
2013-03-04 11:35:00,42.2,29.0,30.37,WNW,292,2.0,-999.0,61,-99.99,,,0.00,519,weatherlink.com 1.10,2013-03-04 10:35:00,
2013-03-04 11:50:00,41.8,29.0,30.37,NW,304,2.0,-999.0,62,-99.99,,,0.00,522,weatherlink.com 1.10,2013-03-04 10:50:00,
2013-03-04 12:05:00,41.9,29.0,30.36,WSW,241,1.0,-999.0,61,-99.99,,,0.00,526,weatherlink.com 1.10,2013-03-04 11:05:00,
2013-03-04 12:19:00,42.9,30.0,30.36,NW,313,1.0,-999.0,60,-99.99,,,0.00,520,weatherlink.com 1.10,2013-03-04 11:19:00,
2013-03-04 12:34:00,43.1,29.0,30.36,West,263,2.0,-999.0,59,-99.99,,,0.00,522,weatherlink.com 1.10,2013-03-04 11:34:00,
2013-03-04 12:50:00,43.6,29.0,30.35,ENE,58,0.0,-999.0,57,-99.99,,,0.00,513,weatherlink.com 1.10,2013-03-04 11:50:00,
2013-03-04 13:04:00,43.9,28.0,30.35,West,278,2.0,-999.0,55,-99.99,,,0.00,513,weatherlink.com 1.10,2013-03-04 12:04:00,
2013-03-04 13:19:00,44.1,28.0,30.34,North,10,0.0,-999.0,53,-99.99,,,0.00,496,weatherlink.com 1.10,2013-03-04 12:19:00,
2013-03-04 13:34:00,43.4,28.0,30.34,West,260,0.0,-999.0,56,-99.99,,,0.00,475,weatherlink.com 1.10,2013-03-04 12:34:00,
2013-03-04 13:49:00,44.0,28.0,30.34,WNW,286,1.0,-999.0,54,-99.99,,,0.00,462,weatherlink.com 1.10,2013-03-04 12:49:00,
2013-03-04 14:04:00,43.7,28.0,30.33,WNW,289,0.0,-999.0,54,-99.99,,,0.00,432,weatherlink.com 1.10,2013-03-04 13:04:00,
2013-03-04 14:19:00,43.6,28.0,30.33,West,274,0.0,-999.0,54,-99.99,,,0.00,229,weatherlink.com 1.10,2013-03-04 13:19:00,
2013-03-04 14:34:00,43.6,28.0,30.33,WSW,248,0.0,-999.0,54,-99.99,,,0.00,250,weatherlink.com 1.10,2013-03-04 13:34:00,
2013-03-04 14:49:00,44.0,28.0,30.32,NW,312,0.0,-999.0,53,-99.99,,,0.00,359,weatherlink.com 1.10,2013-03-04 13:49:00,
2013-03-04 15:04:00,44.2,27.0,30.32,West,273,1.0,-999.0,51,-99.99,,,0.00,260,weatherlink.com 1.10,2013-03-04 14:04:00,
2013-03-04 15:19:00,43.9,27.0,30.31,NW,305,1.0,-999.0,51,-99.99,,,0.00,76,weatherlink.com 1.10,2013-03-04 14:19:00,
2013-03-04 15:34:00,44.2,26.0,30.31,NNW,333,1.0,-999.0,49,-99.99,,,0.00,111,weatherlink.com 1.10,2013-03-04 14:34:00,
2013-03-04 15:50:00,44.0,25.0,30.30,NNW,346,3.0,-999.0,48,-99.99,,,0.00,56,weatherlink.com 1.10,2013-03-04 14:50:00,
2013-03-04 16:04:00,44.0,26.0,30.30,West,275,0.0,-999.0,49,-99.99,,,0.00,54,weatherlink.com 1.10,2013-03-04 15:04:00,
2013-03-04 16:19:00,43.7,26.0,30.30,WNW,291,4.0,-999.0,50,-99.99,,,0.00,49,weatherlink.com 1.10,2013-03-04 15:19:00,
2013-03-04 16:34:00,43.7,26.0,30.29,NW,308,0.0,-999.0,50,-99.99,,,0.00,44,weatherlink.com 1.10,2013-03-04 15:34:00,
2013-03-04 16:50:00,43.5,26.0,30.29,WNW,286,2.0,-999.0,51,-99.99,,,0.00,35,weatherlink.com 1.10,2013-03-04 15:50:00,
2013-03-04 17:05:00,43.3,26.0,30.29,WNW,287,0.0,-999.0,51,-99.99,,,0.00,26,weatherlink.com 1.10,2013-03-04 16:05:00,
2013-03-04 17:20:00,42.9,27.0,30.30,West,280,0.0,-999.0,53,-99.99,,,0.00,16,weatherlink.com 1.10,2013-03-04 16:20:00,
2013-03-04 17:34:00,42.4,26.0,30.30,WNW,302,0.0,-999.0,53,-99.99,,,0.00,9,weatherlink.com 1.10,2013-03-04 16:34:00,
2013-03-04 17:49:00,41.9,26.0,30.29,WNW,295,0.0,-999.0,54,-99.99,,,0.00,0,weatherlink.com 1.10,2013-03-04 16:49:00,
2013-03-04 18:04:00,41.1,26.0,30.29,WNW,295,0.0,-999.0,56,-99.99,,,0.00,0,weatherlink.com 1.10,2013-03-04 17:04:00,
2013-03-04 18:19:00,39.0,26.0,30.30,WNW,295,0.0,-999.0,60,-99.99,,,0.00,0,weatherlink.com 1.10,2013-03-04 17:19:00,
2013-03-04 18:34:00,37.8,27.0,30.30,WNW,295,0.0,-999.0,64,-99.99,,,0.00,0,weatherlink.com 1.10,2013-03-04 17:34:00,
2013-03-04 18:49:00,37.2,27.0,30.30,WNW,295,0.0,-999.0,66,-99.99,,,0.00,0,weatherlink.com 1.10,2013-03-04 17:49:00,
2013-03-04 19:04:00,36.5,27.0,30.30,WNW,295,0.0,-999.0,68,-99.99,,,0.00,0,weatherlink.com 1.10,2013-03-04 18:04:00,
2013-03-04 19:19:00,36.1,27.0,30.30,WNW,295,0.0,-999.0,69,-99.99,,,0.00,0,weatherlink.com 1.10,2013-03-04 18:19:00,
2013-03-04 19:34:00,36.4,27.0,30.30,WNW,295,0.0,-999.0,70,-99.99,,,0.00,0,weatherlink.com 1.10,2013-03-04 18:34:00,
2013-03-04 19:50:00,37.3,27.0,30.30,WNW,295,0.0,-999.0,67,-99.99,,,0.00,0,weatherlink.com 1.10,2013-03-04 18:50:00,
2013-03-04 20:04:00,37.8,27.0,30.30,WNW,295,0.0,-999.0,65,-99.99,,,0.00,0,weatherlink.com 1.10,2013-03-04 19:04:00,
2013-03-04 20:19:00,36.9,27.0,30.30,WNW,295,0.0,-999.0,67,-99.99,,,0.00,0,weatherlink.com 1.10,2013-03-04 19:19:00,
2013-03-04 20:34:00,37.0,27.0,30.30,WNW,295,0.0,-999.0,66,-99.99,,,0.00,0,weatherlink.com 1.10,2013-03-04 19:34:00,
2013-03-04 20:49:00,36.3,26.0,30.30,WNW,295,0.0,-999.0,66,-99.99,,,0.00,0,weatherlink.com 1.10,2013-03-04 19:49:00,
2013-03-04 21:04:00,35.5,26.0,30.30,WNW,295,0.0,-999.0,68,-99.99,,,0.00,0,weatherlink.com 1.10,2013-03-04 20:04:00,
2013-03-04 21:20:00,34.8,26.0,30.31,WNW,295,0.0,-999.0,69,-99.99,,,0.00,0,weatherlink.com 1.10,2013-03-04 20:20:00,
2013-03-04 21:34:00,33.8,25.0,30.31,WNW,295,0.0,-999.0,71,-99.99,,,0.00,0,weatherlink.com 1.10,2013-03-04 20:34:00,
2013-03-04 21:50:00,32.9,25.0,30.30,WNW,295,0.0,-999.0,73,-99.99,,,0.00,0,weatherlink.com 1.10,2013-03-04 20:50:00,
2013-03-04 22:04:00,32.5,25.0,30.30,WNW,295,0.0,-999.0,74,-99.99,,,0.00,0,weatherlink.com 1.10,2013-03-04 21:04:00,
2013-03-04 22:19:00,31.8,25.0,30.30,WNW,295,0.0,-999.0,76,-99.99,,,0.00,0,weatherlink.com 1.10,2013-03-04 21:19:00,
2013-03-04 22:34:00,31.4,25.0,30.30,WNW,295,0.0,-999.0,78,-99.99,,,0.00,0,weatherlink.com 1.10,2013-03-04 21:34:00,
2013-03-04 22:51:00,31.3,25.0,30.29,WNW,295,0.0,-999.0,78,-99.99,,,0.00,0,weatherlink.com 1.10,2013-03-04 21:51:00,
2013-03-04 23:06:00,31.4,26.0,30.29,WNW,295,0.0,-999.0,79,-99.99,,,0.00,0,weatherlink.com 1.10,2013-03-04 22:06:00,
2013-03-04 23:21:00,32.4,26.0,30.29,WNW,295,0.0,-999.0,76,-99.99,,,0.00,0,weatherlink.com 1.10,2013-03-04 22:21:00,
2013-03-04 23:35:00,31.9,25.0,30.29,WNW,295,0.0,-999.0,76,-99.99,,,0.00,0,weatherlink.com 1.10,2013-03-04 22:35:00,
2013-03-04 23:50:00,31.4,25.0,30.28,WNW,295,0.0,-999.0,76,-99.99,,,0.00,0,weatherlink.com 1.10,2013-03-04 22:50:00,